Weather History for Douglas, WY

Change the Weather History Date:

Tuesday, January 8, 2013

  Actual Average Record
Temperature  
Mean Temperature 33 °F 25 °F  
Max Temperature 45 °F 39 °F 63 °F (2002)
Min Temperature 21 °F 11 °F -23 °F (2010)
Degree Days  
Heating Degree Days 32 40  
Month to date heating degree days 347 322  
Since 1 July heating degree days 2974 3411  
Cooling Degree Days 0 0  
Month to date cooling degree days 0 0  
Year to date cooling degree days 0 0  
Moisture  
Dew Point 18 °F    
Average Humidity 55    
Maximum Humidity 77    
Minimum Humidity 33    
Precipitation  
Precipitation 0.00 in 0.01 in 0.31 in (2006)
Month to date precipitation T 0.08  
Year to date precipitation T 0.08  
Sea Level Pressure  
Sea Level Pressure 29.96 in    
Wind  
Wind Speed 14 mph (WNW)    
Max Wind Speed 37 mph    
Max Gust Speed 43 mph    
Visibility 10 miles    
Events      
T = Trace of Precipitation, MM = Missing Value Source: NWS Daily Summary

Daily Weather History Graph

Daily Weather History Graph

Search for Another Location

Airport:

Trip Planner

Search our weather history database for the weather conditions in past years. The results will help you decide how hot, cold, wet, or windy it might be!

Date:

Astronomy

Jan. 08, 2013 Rise Set
Actual Time 7:31 AM MST 4:45 PM MST
Civil Twilight 6:59 AM MST 5:17 PM MST
Nautical Twilight 6:24 AM MST 5:52 PM MST
Astronomical Twilight 5:50 AM MST 6:26 PM MST
Moon 4:07 AM MST (1/8) 1:50 PM MST (1/8)
Length of Visible Light 10h 17m
Length of Day
9h 13m
Waning Crescent, 13% of the Moon is Illuminated
Jan 8
Waning Crescent
Jan 11
New
Jan 18
First Quarter
Jan 26
Full
Feb 3
Last Quarter

Hourly Weather History & Observations

Time (MST) Temp. Windchill Dew Point Humidity Pressure Visibility Wind Dir Wind Speed Gust Speed Precip Events Conditions
12:53 AM 32.0 °F 23.0 °F 16.0 °F 52% 29.74 in 10.0 mi NW 11.5 mph - N/A   Clear
1:53 AM 35.1 °F 27.4 °F 17.1 °F 48% 29.75 in 10.0 mi West 10.4 mph - N/A   Clear
2:53 AM 34.0 °F 25.5 °F 17.1 °F 50% 29.77 in 10.0 mi West 11.5 mph - N/A   Clear
3:53 AM 30.9 °F 26.2 °F 17.1 °F 57% 29.78 in 10.0 mi NW 4.6 mph - N/A   Clear
4:53 AM 34.0 °F 27.2 °F 17.1 °F 50% 29.81 in 10.0 mi West 8.1 mph 16.1 mph N/A   Clear
5:53 AM 37.0 °F 26.7 °F 18.0 °F 46% 29.84 in 10.0 mi West 19.6 mph 27.6 mph N/A   Scattered Clouds
6:53 AM 36.0 °F 27.1 °F 19.0 °F 50% 29.86 in 10.0 mi West 13.8 mph 21.9 mph N/A   Overcast
7:53 AM 33.1 °F 25.5 °F 18.0 °F 54% 29.90 in 10.0 mi West 9.2 mph - N/A   Scattered Clouds
8:53 AM 37.0 °F 31.0 °F 19.0 °F 48% 29.90 in 10.0 mi NW 8.1 mph - N/A   Partly Cloudy
9:53 AM 39.9 °F 29.5 °F 19.9 °F 45% 29.91 in 10.0 mi WNW 24.2 mph 31.1 mph N/A   Scattered Clouds
10:53 AM 41.0 °F 30.5 °F 19.0 °F 41% 29.91 in 10.0 mi WNW 26.5 mph 32.2 mph N/A   Overcast
12:53 PM 44.1 °F 33.5 °F 19.0 °F 37% 29.91 in 10.0 mi WNW 33.4 mph 42.6 mph N/A   Clear
1:53 PM 45.0 °F 35.2 °F 19.0 °F 36% 29.92 in 10.0 mi WNW 29.9 mph 39.1 mph N/A   Clear
2:53 PM 44.1 °F 34.0 °F 17.1 °F 34% 29.96 in 10.0 mi WNW 29.9 mph 42.6 mph N/A   Clear
3:53 PM 41.0 °F 31.6 °F 18.0 °F 40% 30.03 in 10.0 mi WNW 20.7 mph 33.4 mph N/A   Clear
5:53 PM 33.1 °F 26.9 °F 19.0 °F 56% 30.09 in 10.0 mi WNW 6.9 mph - N/A   Clear
6:53 PM 28.9 °F 21.1 °F 19.0 °F 67% 30.13 in 10.0 mi West 8.1 mph - N/A   Clear
7:53 PM 28.0 °F 21.7 °F 18.0 °F 66% 30.18 in 10.0 mi North 5.8 mph - N/A   Clear
8:53 PM 21.9 °F - 16.0 °F 78% 30.20 in 10.0 mi Calm Calm - N/A   Clear
9:53 PM 24.1 °F 18.2 °F 17.1 °F 75% 30.19 in 10.0 mi West 4.6 mph - N/A   Clear
10:53 PM 23.0 °F - 16.0 °F 74% 30.20 in 10.0 mi Calm Calm - N/A   Clear
11:53 PM 34.0 °F 26.0 °F 19.9 °F 56% 30.17 in 10.0 mi West 10.4 mph - N/A   Clear